Location: ?????
(55.8833°N, 37.6500°E)
Time: 04:14:11
(UTC+00:00)

Cosmos 2322 Rocket - Pass Details

Date: 27 February 2020
Orbit: 833 x 851 km, 71.0° (Epoch: 09 April)

Event Time Altitude Azimuth Distance (km) Brightness Sun altitude
Exits shadow 23:31:31 22° 351° (N) 1,775 4.2 -37.7°
Drops below altitude 10° 23:35:06 10° 29° (NNE) 2,489 5.4 -37.4°
Sets 23:38:05 0° 44° (NE) 3,425 6.3 -37.2°
